When you browse on this site, cookies collect data to enhance your experience and personalize the content and advertising you see.
Visit our Privacy Policy to learn more. By continuing to use the site, you agree to this use of cookies and data.
  • In Switzerland
  • List of Countries
  • For 7 days
  • Water Temperature
  • Satellite Maps
  • Weather Map
  • Weather Widgets
  • user-avatar
    Login

    Hourly Weather Bodø

    Today, 19 January, Saturday

    Time Temperature Precipitation Wind Pressure Humidity
    00:00 -7°C° 0.4 mm 5 mps 749 mmHg 79%
    01:00 -6°C° 0 mm 5 mps 748 mmHg 79%
    02:00 -7°C° 0.6 mm 4 mps 748 mmHg 80%
    03:00 -6°C° 0.6 mm 3 mps 748 mmHg 81%
    04:00 -6°C° 0.6 mm 3 mps 748 mmHg 82%
    05:00 -6°C° 0.5 mm 3 mps 748 mmHg 82%
    06:00 -6°C° 0.5 mm 2 mps 749 mmHg 82%
    07:00 -6°C° 0.5 mm 2 mps 749 mmHg 83%
    08:00 -6°C° 0.4 mm 2 mps 749 mmHg 82%
    09:00 -7°C° 0.4 mm 3 mps 750 mmHg 81%
    10:00 -7°C° 0.4 mm 3 mps 750 mmHg 81%
    11:00 -7°C° 0.4 mm 3 mps 750 mmHg 80%
    12:00 -7°C° 0.4 mm 3 mps 751 mmHg 79%
    13:00 -7°C° 0.4 mm 3 mps 751 mmHg 78%
    14:00 -7°C° 0.4 mm 3 mps 752 mmHg 79%
    15:00 -7°C° 0.4 mm 3 mps 752 mmHg 79%
    16:00 -7°C° 0.4 mm 4 mps 753 mmHg 80%
    17:00 -7°C° 0.4 mm 4 mps 753 mmHg 80%
    18:00 -7°C° 0.4 mm 4 mps 753 mmHg 80%
    19:00 -7°C° 0.4 mm 4 mps 754 mmHg 80%
    20:00 -7°C° 0.4 mm 4 mps 754 mmHg 80%
    21:00 -7°C° 0.4 mm 4 mps 754 mmHg 80%
    22:00 -7°C° 0.4 mm 4 mps 755 mmHg 81%
    23:00 -7°C° 0.5 mm 4 mps 755 mmHg 81%

    Tomorrow, 20 January, Sunday

    Time Temperature Precipitation Wind Pressure Humidity
    00:00 -7°C° 0.5 mm 4 mps 755 mmHg 81%
    01:00 -7°C° 0.5 mm 4 mps 756 mmHg 81%
    02:00 -7°C° 0.6 mm 5 mps 756 mmHg 83%
    03:00 -6°C° 0.6 mm 5 mps 756 mmHg 85%
    04:00 -6°C° 0.6 mm 6 mps 757 mmHg 86%
    05:00 -6°C° 0.6 mm 6 mps 757 mmHg 86%
    06:00 -6°C° 0.6 mm 6 mps 757 mmHg 85%
    07:00 -6°C° 0.6 mm 6 mps 757 mmHg 85%
    08:00 -6°C° 0.4 mm 6 mps 757 mmHg 83%
    09:00 -6°C° 0.4 mm 6 mps 757 mmHg 81%
    10:00 -6°C° 0.4 mm 6 mps 758 mmHg 80%
    11:00 -6°C° 0.4 mm 5 mps 758 mmHg 80%
    12:00 -6°C° 0.4 mm 5 mps 758 mmHg 80%
    13:00 -6°C° 0.4 mm 5 mps 758 mmHg 80%
    14:00 -5°C° 0.4 mm 4 mps 758 mmHg 81%
    15:00 -5°C° 0.4 mm 4 mps 758 mmHg 83%
    16:00 -5°C° 0.4 mm 4 mps 758 mmHg 84%
    17:00 -5°C° 0.5 mm 4 mps 758 mmHg 85%
    18:00 -5°C° 0.5 mm 4 mps 758 mmHg 86%
    19:00 -5°C° 0.5 mm 4 mps 758 mmHg 87%
    20:00 -5°C° 0.4 mm 3 mps 758 mmHg 86%
    21:00 -5°C° 0.4 mm 3 mps 758 mmHg 86%
    22:00 -4°C° 0.4 mm 2 mps 758 mmHg 86%
    23:00 -4°C° 0.2 mm 2 mps 758 mmHg 85%

    Day after tomorrow, 21 January, Monday

    Time Temperature Precipitation Wind Pressure Humidity
    00:00 -4°C° 0.2 mm 2 mps 758 mmHg 85%
    01:00 -4°C° 0.2 mm 2 mps 759 mmHg 84%
    02:00 -5°C° 0.1 mm 2 mps 759 mmHg 84%
    03:00 -6°C° 0.1 mm 2 mps 759 mmHg 83%
    04:00 -6°C° 0.1 mm 2 mps 759 mmHg 82%
    05:00 -7°C° 0 mm 2 mps 759 mmHg 82%
    06:00 -7°C° 0 mm 2 mps 759 mmHg 81%
    07:00 -8°C° 0 mm 2 mps 759 mmHg 81%
    08:00 -9°C° 0 mm 3 mps 759 mmHg 80%
    09:00 -9°C° 0 mm 3 mps 759 mmHg 80%
    10:00 -9°C° 0 mm 3 mps 760 mmHg 80%
    11:00 -9°C° 0 mm 3 mps 760 mmHg 78%
    12:00 -9°C° 0 mm 3 mps 760 mmHg 76%
    13:00 -10°C° 0 mm 4 mps 760 mmHg 74%
    14:00 -10°C° 0 mm 3 mps 760 mmHg 71%
    15:00 -10°C° 0 mm 3 mps 760 mmHg 68%
    16:00 -10°C° 0 mm 3 mps 759 mmHg 65%
    17:00 -10°C° 0 mm 3 mps 759 mmHg 63%
    18:00 -10°C° 0 mm 3 mps 759 mmHg 62%
    19:00 -11°C° 0 mm 4 mps 759 mmHg 60%
    20:00 -12°C° 0 mm 4 mps 759 mmHg 59%
    21:00 -12°C° 0 mm 3 mps 758 mmHg 58%
    22:00 -12°C° 0 mm 3 mps 758 mmHg 56%
    23:00 -12°C° 0 mm 3 mps 758 mmHg 55%

    22 January, Tuesday

    Time Temperature Precipitation Wind Pressure Humidity
    00:00 -12°C° 0 mm 3 mps 758 mmHg 55%
    01:00 -10°C° 0 mm 3 mps 758 mmHg 54%
    02:00 -12°C° 0 mm 3 mps 758 mmHg 54%
    03:00 -12°C° 0 mm 3 mps 757 mmHg 54%
    04:00 -12°C° 0 mm 3 mps 757 mmHg 54%
    05:00 -12°C° 0 mm 3 mps 757 mmHg 56%
    06:00 -12°C° 0 mm 3 mps 757 mmHg 58%
    07:00 -12°C° 0 mm 3 mps 757 mmHg 60%
    08:00 -12°C° 0 mm 3 mps 757 mmHg 61%
    09:00 -12°C° 0 mm 3 mps 757 mmHg 63%
    10:00 -12°C° 0 mm 3 mps 757 mmHg 65%
    11:00 -10°C° 0 mm 3 mps 757 mmHg 67%
    12:00 -10°C° 0 mm 3 mps 757 mmHg 69%
    13:00 -10°C° 0 mm 3 mps 757 mmHg 71%
    14:00 -10°C° 0 mm 3 mps 757 mmHg 74%
    15:00 -10°C° 0 mm 3 mps 757 mmHg 77%
    16:00 -10°C° 0 mm 3 mps 757 mmHg 80%
    17:00 -12°C° 0 mm 4 mps 757 mmHg 81%
    18:00 -12°C° 0 mm 4 mps 757 mmHg 82%
    19:00 -12°C° 0 mm 4 mps 757 mmHg 82%
    20:00 -12°C° 0 mm 4 mps 758 mmHg 83%
    21:00 -14°C° 0 mm 4 mps 758 mmHg 83%
    22:00 -14°C° 0 mm 5 mps 758 mmHg 84%
    23:00 -14°C° 0 mm 5 mps 758 mmHg 83%

    23 January, Wednesday

    Time Temperature Precipitation Wind Pressure Humidity
    00:00 -14°C° 0 mm 5 mps 758 mmHg 82%
    01:00 -15°C° 0 mm 5 mps 758 mmHg 81%
    02:00 -15°C° 0 mm 5 mps 759 mmHg 80%
    03:00 -15°C° 0 mm 5 mps 759 mmHg 78%
    04:00 -15°C° 0 mm 5 mps 759 mmHg 77%
    05:00 -15°C° 0 mm 5 mps 759 mmHg 76%
    06:00 -17°C° 0 mm 5 mps 760 mmHg 76%
    07:00 -17°C° 0 mm 5 mps 760 mmHg 75%
    08:00 -17°C° 0 mm 5 mps 760 mmHg 74%
    09:00 -17°C° 0 mm 5 mps 761 mmHg 74%
    10:00 -18°C° 0 mm 5 mps 761 mmHg 73%
    11:00 -17°C° 0 mm 5 mps 761 mmHg 72%
    12:00 -17°C° 0 mm 5 mps 762 mmHg 71%
    13:00 -17°C° 0 mm 5 mps 762 mmHg 70%
    14:00 -17°C° 0 mm 5 mps 763 mmHg 69%
    15:00 -18°C° 0 mm 5 mps 763 mmHg 69%
    16:00 -18°C° 0 mm 5 mps 763 mmHg 68%
    17:00 -18°C° 0 mm 5 mps 764 mmHg 67%
    18:00 -18°C° 0 mm 5 mps 764 mmHg 66%
    19:00 -17°C° 0 mm 4 mps 765 mmHg 66%
    20:00 -17°C° 0 mm 4 mps 765 mmHg 65%
    21:00 -17°C° 0 mm 4 mps 766 mmHg 65%
    22:00 -17°C° 0 mm 4 mps 766 mmHg 65%
    23:00 -17°C° 0 mm 4 mps 767 mmHg 65%

    24 January, Thursday

    Time Temperature Precipitation Wind Pressure Humidity
    00:00 -17°C° 0 mm 4 mps 767 mmHg 65%
    01:00 -17°C° 0 mm 4 mps 768 mmHg 65%
    02:00 -17°C° 0 mm 4 mps 768 mmHg 66%
    03:00 -17°C° 0 mm 4 mps 768 mmHg 66%
    04:00 -17°C° 0 mm 4 mps 768 mmHg 66%
    05:00 -17°C° 0 mm 4 mps 769 mmHg 67%
    06:00 -17°C° 0 mm 4 mps 769 mmHg 67%
    07:00 -17°C° 0 mm 4 mps 770 mmHg 67%
    08:00 -17°C° 0 mm 4 mps 770 mmHg 67%
    09:00 -17°C° 0 mm 4 mps 771 mmHg 67%
    10:00 -17°C° 0 mm 4 mps 771 mmHg 67%
    11:00 -17°C° 0 mm 4 mps 771 mmHg 66%
    12:00 -17°C° 0 mm 4 mps 772 mmHg 66%
    13:00 -16°C° 0 mm 4 mps 772 mmHg 66%
    14:00 -17°C° 0 mm 4 mps 773 mmHg 66%
    15:00 -17°C° 0 mm 4 mps 773 mmHg 66%
    16:00 -17°C° 0 mm 4 mps 773 mmHg 66%
    17:00 -17°C° 0 mm 4 mps 774 mmHg 65%
    18:00 -17°C° 0 mm 4 mps 774 mmHg 64%
    19:00 -17°C° 0 mm 4 mps 774 mmHg 63%
    20:00 -17°C° 0 mm 4 mps 775 mmHg 61%
    21:00 -17°C° 0 mm 4 mps 775 mmHg 59%
    22:00 -16°C° 0 mm 3 mps 776 mmHg 56%
    23:00 -16°C° 0 mm 3 mps 776 mmHg 55%
    Show more